CPA701 VHHH-VTBS

Flight info

Callsign CPA701
Flight time 2h 43m
Altitude 38000
Route PECAN V10 SIKOU/K0909S1160 A202 ASSAD/K0909F380 A202 VILAO/N0491F380 A202 RAMEI W42 PAKRI Y13 RUKSA EASTE1D
Aircraft B77W/H-SDE1E2E3FGHIJ2J3J4J5M1RWXY/LB1D1

Departure

Time 2026-05-04 11:08
Airport Hong Kong International Airport (VHHH)

Arrival

Time 2026-05-04 13:51
Airport Suvarnabhumi Airport (VTBS)
Time Latitude Longitude Altitude Speed Heading
2026-05-04 10:25 22.31258 113.93457 42 ft 0 kts 71°
2026-05-04 10:49 22.31255 113.93447 42 ft 4 kts 71°
2026-05-04 10:50 22.31246 113.93420 42 ft 4 kts 71°
2026-05-04 10:51 22.31297 113.93288 38 ft 4 kts 97°
2026-05-04 10:52 22.31296 113.93261 38 ft 4 kts 74°
2026-05-04 10:52 22.31288 113.93235 40 ft 2 kts 71°
2026-05-04 10:52 22.31288 113.93234 39 ft 1 kts 71°
2026-05-04 10:56 22.31296 113.93264 42 ft 7 kts 80°
2026-05-04 10:56 22.31274 113.93329 42 ft 13 kts 135°
2026-05-04 10:56 22.31175 113.93375 42 ft 18 kts 161°
2026-05-04 10:57 22.31056 113.93419 42 ft 18 kts 162°
2026-05-04 10:57 22.30984 113.93382 42 ft 11 kts 243°
2026-05-04 10:57 22.30950 113.93309 42 ft 11 kts 242°
2026-05-04 10:57 22.30908 113.93213 42 ft 17 kts 249°
2026-05-04 10:58 22.30861 113.93065 41 ft 24 kts 251°
2026-05-04 10:58 22.30803 113.92887 41 ft 24 kts 250°
2026-05-04 10:58 22.30749 113.92720 41 ft 23 kts 251°
2026-05-04 10:58 22.30702 113.92572 42 ft 19 kts 251°
2026-05-04 10:59 22.30658 113.92436 42 ft 19 kts 250°
2026-05-04 10:59 22.30604 113.92270 42 ft 27 kts 251°
2026-05-04 10:59 22.30541 113.92077 42 ft 27 kts 251°
2026-05-04 10:59 22.30479 113.91883 42 ft 27 kts 250°
2026-05-04 11:00 22.30418 113.91694 42 ft 27 kts 250°
2026-05-04 11:01 22.29982 113.90345 41 ft 27 kts 251°
2026-05-04 11:02 22.29922 113.90157 41 ft 26 kts 251°
2026-05-04 11:02 22.29865 113.89984 41 ft 24 kts 250°
2026-05-04 11:05 22.29788 113.89873 42 ft 0 kts 161°
2026-05-04 11:06 22.29783 113.89875 42 ft 2 kts 162°
2026-05-04 11:06 22.29747 113.89888 42 ft 9 kts 162°
2026-05-04 11:06 22.29697 113.89906 42 ft 13 kts 161°
2026-05-04 11:08 22.30837 113.93576 2681 ft 214 kts 69°
2026-05-04 11:10 22.32813 114.06851 5010 ft 281 kts 134°
2026-05-04 11:12 22.19566 114.08766 10984 ft 310 kts 184°
2026-05-04 11:12 22.17307 114.08764 11214 ft 342 kts 183°
2026-05-04 11:12 22.14821 114.08764 11542 ft 368 kts 183°
2026-05-04 11:12 22.12219 114.08768 12342 ft 378 kts 183°
2026-05-04 11:13 22.09573 114.08776 13286 ft 383 kts 183°
2026-05-04 11:13 22.06891 114.08784 14244 ft 387 kts 183°
2026-05-04 11:13 22.04372 114.08790 15042 ft 391 kts 184°
2026-05-04 11:13 22.01905 114.08794 15793 ft 396 kts 184°
2026-05-04 11:14 21.99133 114.08798 16602 ft 402 kts 184°
2026-05-04 11:14 21.96314 114.08802 17406 ft 407 kts 184°
2026-05-04 11:14 21.93458 114.08805 18210 ft 412 kts 184°
2026-05-04 11:16 21.72614 114.08833 22904 ft 444 kts 184°
2026-05-04 11:16 21.69521 114.08836 23510 ft 449 kts 184°
2026-05-04 11:16 21.66399 114.08795 24015 ft 451 kts 187°
2026-05-04 11:17 21.63247 114.08465 24550 ft 451 kts 192°
2026-05-04 11:17 21.60231 114.07813 25071 ft 450 kts 198°
2026-05-04 11:19 21.39152 114.00239 28437 ft 463 kts 215°
2026-05-04 11:19 21.36451 113.98338 28841 ft 466 kts 216°
2026-05-04 11:19 21.33751 113.96397 29224 ft 468 kts 217°
2026-05-04 11:19 21.31055 113.94458 29599 ft 471 kts 217°
2026-05-04 11:20 21.28299 113.92489 29965 ft 474 kts 216°
2026-05-04 11:20 21.25550 113.90539 30310 ft 475 kts 216°
2026-05-04 11:20 21.22789 113.88591 30696 ft 475 kts 216°
2026-05-04 11:20 21.20028 113.86646 31141 ft 473 kts 216°
2026-05-04 11:22 21.05386 113.69150 34045 ft 456 kts 252°
2026-05-04 11:22 21.04526 113.65895 34403 ft 454 kts 257°
2026-05-04 11:23 21.03942 113.62580 34753 ft 453 kts 263°
2026-05-04 11:23 21.03636 113.59228 35092 ft 453 kts 265°
2026-05-04 11:24 21.01959 113.39225 37148 ft 447 kts 265°
2026-05-04 11:25 21.01669 113.35925 37464 ft 446 kts 265°
2026-05-04 11:25 21.01377 113.32604 37770 ft 446 kts 265°
2026-05-04 11:25 21.01085 113.29305 37931 ft 448 kts 265°
2026-05-04 11:27 20.98425 112.99480 38035 ft 448 kts 265°
2026-05-04 11:28 20.97827 112.92860 38107 ft 445 kts 265°
2026-05-04 11:28 20.97231 112.86285 38109 ft 444 kts 265°
2026-05-04 11:29 20.96634 112.79720 38115 ft 445 kts 265°
2026-05-04 11:29 20.96028 112.73093 38115 ft 446 kts 265°
2026-05-04 11:33 20.92366 112.33643 38112 ft 446 kts 265°
2026-05-04 11:33 20.91746 112.27060 38120 ft 446 kts 265°
2026-05-04 11:34 20.91123 112.20465 38116 ft 446 kts 265°
2026-05-04 11:34 20.90495 112.13856 38120 ft 445 kts 265°
2026-05-04 11:35 20.89872 112.07317 38115 ft 445 kts 265°
2026-05-04 11:35 20.89242 112.00736 38121 ft 445 kts 264°
2026-05-04 11:36 20.88609 111.94149 38118 ft 445 kts 264°
2026-05-04 11:36 20.87974 111.87574 38121 ft 445 kts 264°
2026-05-04 11:37 20.87335 111.80976 38120 ft 446 kts 264°
2026-05-04 11:37 20.86691 111.74358 38117 ft 444 kts 264°
2026-05-04 11:38 20.86055 111.67849 38114 ft 442 kts 264°
2026-05-04 11:38 20.85416 111.61329 38115 ft 440 kts 264°
2026-05-04 11:39 20.84778 111.54843 38118 ft 439 kts 264°
2026-05-04 11:40 20.79640 111.36025 38117 ft 442 kts 252°
2026-05-04 11:41 20.78589 111.32923 38122 ft 443 kts 252°
2026-05-04 11:41 20.76500 111.26725 38116 ft 444 kts 252°
2026-05-04 11:42 20.76288 111.26092 38118 ft 444 kts 252°
2026-05-04 11:43 20.74163 111.19764 38123 ft 445 kts 252°
2026-05-04 11:43 20.72068 111.13535 38124 ft 445 kts 252°
2026-05-04 11:44 20.69972 111.07308 38125 ft 446 kts 252°
2026-05-04 11:44 20.67869 111.01073 38114 ft 447 kts 252°
2026-05-04 11:45 20.65763 110.94833 38118 ft 446 kts 252°
2026-05-04 11:45 20.63657 110.88600 38114 ft 446 kts 252°
2026-05-04 11:46 20.61562 110.82357 38111 ft 446 kts 252°
2026-05-04 11:46 20.59474 110.76132 38112 ft 446 kts 252°
2026-05-04 11:47 20.57373 110.69883 38110 ft 446 kts 252°
2026-05-04 11:47 20.55272 110.63644 38114 ft 446 kts 252°
2026-05-04 11:48 20.53529 110.58473 38120 ft 447 kts 252°
2026-05-04 11:48 20.50824 110.51319 38118 ft 449 kts 245°
2026-05-04 11:49 20.47547 110.45589 38114 ft 452 kts 237°
2026-05-04 11:49 20.44289 110.41222 38122 ft 453 kts 234°
2026-05-04 11:50 20.40267 110.36039 38120 ft 454 kts 234°
2026-05-04 11:50 20.36270 110.30831 38113 ft 454 kts 234°
2026-05-04 11:51 20.32288 110.25608 38115 ft 454 kts 234°
2026-05-04 11:51 20.28322 110.20391 38113 ft 453 kts 234°
2026-05-04 11:52 20.24388 110.15138 38116 ft 453 kts 235°
2026-05-04 11:52 20.20487 110.09920 38112 ft 453 kts 235°
2026-05-04 11:53 20.16541 110.04655 38106 ft 453 kts 235°
2026-05-04 11:53 20.12603 109.99411 38130 ft 453 kts 234°
2026-05-04 11:55 19.96939 109.78603 38096 ft 453 kts 235°
2026-05-04 11:56 19.92996 109.73376 38094 ft 453 kts 235°
2026-05-04 11:56 19.89077 109.68186 38094 ft 454 kts 235°
2026-05-04 11:57 19.85136 109.62972 38107 ft 453 kts 235°
2026-05-04 11:57 19.81176 109.57737 38112 ft 453 kts 235°
2026-05-04 11:58 19.77222 109.52514 38107 ft 454 kts 235°
2026-05-04 11:58 19.73258 109.47282 38095 ft 454 kts 235°
2026-05-04 11:59 19.69297 109.42059 38107 ft 454 kts 235°
2026-05-04 11:59 19.65334 109.36839 38105 ft 455 kts 235°
2026-05-04 12:00 19.61366 109.31614 38100 ft 455 kts 235°
2026-05-04 12:00 19.57382 109.26375 38103 ft 456 kts 235°
2026-05-04 12:01 19.53404 109.21146 38096 ft 457 kts 235°
2026-05-04 12:02 19.39313 109.02910 38093 ft 456 kts 234°
2026-05-04 12:03 19.35293 108.97723 38096 ft 456 kts 234°
2026-05-04 12:03 19.31249 108.92507 38097 ft 457 kts 234°
2026-05-04 12:04 19.27210 108.87304 38084 ft 457 kts 234°
2026-05-04 12:04 19.23176 108.82107 38090 ft 457 kts 234°
2026-05-04 12:05 19.19150 108.76910 38090 ft 457 kts 234°
2026-05-04 12:05 19.15115 108.71702 38092 ft 458 kts 234°
2026-05-04 12:06 19.11074 108.66491 38086 ft 458 kts 234°
2026-05-04 12:06 19.07032 108.61284 38087 ft 458 kts 233°
2026-05-04 12:07 19.03016 108.56115 38083 ft 458 kts 233°
2026-05-04 12:07 18.98965 108.50906 38085 ft 459 kts 233°
2026-05-04 12:08 18.94916 108.45703 38077 ft 459 kts 233°
2026-05-04 12:08 18.90859 108.40494 38081 ft 459 kts 233°
2026-05-04 12:09 18.86792 108.35278 38083 ft 460 kts 233°
2026-05-04 12:09 18.82732 108.30074 38084 ft 460 kts 233°
2026-05-04 12:10 18.78654 108.24853 38092 ft 461 kts 233°
2026-05-04 12:10 18.74579 108.19639 38085 ft 461 kts 233°
2026-05-04 12:11 18.70493 108.14415 38085 ft 461 kts 233°
2026-05-04 12:11 18.66408 108.09197 38088 ft 462 kts 233°
2026-05-04 12:12 18.62315 108.03974 38086 ft 462 kts 233°
2026-05-04 12:12 18.58218 107.98749 38088 ft 462 kts 233°
2026-05-04 12:14 18.41785 107.77833 38090 ft 465 kts 233°
2026-05-04 12:15 18.37656 107.72588 38093 ft 465 kts 233°
2026-05-04 12:15 18.33605 107.67280 38096 ft 464 kts 237°
2026-05-04 12:16 18.30119 107.61563 38101 ft 463 kts 240°
2026-05-04 12:16 18.26768 107.55940 38095 ft 464 kts 240°
2026-05-04 12:17 18.23322 107.50211 38094 ft 464 kts 240°
2026-05-04 12:17 18.19856 107.44487 38090 ft 463 kts 239°
2026-05-04 12:18 18.16391 107.38773 38095 ft 463 kts 239°
2026-05-04 12:18 18.12933 107.33073 38093 ft 463 kts 239°
2026-05-04 12:19 18.09477 107.27379 38094 ft 463 kts 239°
2026-05-04 12:19 18.06007 107.21672 38095 ft 463 kts 239°
2026-05-04 12:20 18.02533 107.15987 38095 ft 463 kts 239°
2026-05-04 12:20 17.99044 107.10286 38098 ft 463 kts 239°
2026-05-04 12:21 17.95563 107.04597 38094 ft 463 kts 239°
2026-05-04 12:21 17.92086 106.98918 38096 ft 463 kts 239°
2026-05-04 12:22 17.88604 106.93235 38097 ft 463 kts 239°
2026-05-04 12:22 17.85124 106.87521 38096 ft 464 kts 240°
2026-05-04 12:23 17.81669 106.81820 38104 ft 464 kts 240°
2026-05-04 12:23 17.78196 106.76097 38092 ft 465 kts 239°
2026-05-04 12:24 17.74717 106.70373 38099 ft 464 kts 239°
2026-05-04 12:24 17.71246 106.64669 38099 ft 465 kts 239°
2026-05-04 12:25 17.67763 106.58949 38097 ft 465 kts 239°
2026-05-04 12:25 17.64279 106.53251 38100 ft 465 kts 239°
2026-05-04 12:26 17.60778 106.47533 38103 ft 465 kts 239°
2026-05-04 12:26 17.57296 106.41848 38108 ft 465 kts 239°
2026-05-04 12:27 17.53792 106.36130 38114 ft 465 kts 239°
2026-05-04 12:27 17.50311 106.30455 38110 ft 465 kts 239°
2026-05-04 12:28 17.46803 106.24738 38110 ft 465 kts 239°
2026-05-04 12:28 17.43304 106.19043 38106 ft 465 kts 239°
2026-05-04 12:29 17.39831 106.13392 38109 ft 464 kts 239°
2026-05-04 12:29 17.36309 106.07666 38093 ft 465 kts 239°
2026-05-04 12:30 17.32836 106.01954 38092 ft 465 kts 239°
2026-05-04 12:30 17.29380 105.96240 38081 ft 465 kts 239°
2026-05-04 12:31 17.25936 105.90553 38075 ft 465 kts 239°
2026-05-04 12:31 17.22448 105.84806 38061 ft 465 kts 239°
2026-05-04 12:32 17.17264 105.76277 38050 ft 465 kts 239°
2026-05-04 12:33 17.13787 105.70561 38040 ft 466 kts 239°
2026-05-04 12:33 17.10310 105.64851 38030 ft 466 kts 239°
2026-05-04 12:34 17.06826 105.59136 38029 ft 466 kts 239°
2026-05-04 12:34 17.03344 105.53426 38029 ft 466 kts 239°
2026-05-04 12:35 16.99851 105.47704 38025 ft 466 kts 239°
2026-05-04 12:35 16.96359 105.41987 38020 ft 467 kts 239°
2026-05-04 12:36 16.92867 105.36275 38015 ft 467 kts 239°
2026-05-04 12:36 16.89374 105.30565 38016 ft 467 kts 239°
2026-05-04 12:37 16.86491 105.25856 38010 ft 466 kts 239°
2026-05-04 12:37 16.82973 105.20126 38009 ft 466 kts 239°
2026-05-04 12:38 16.79475 105.14442 38008 ft 465 kts 239°
2026-05-04 12:38 16.75984 105.08771 38006 ft 464 kts 239°
2026-05-04 12:39 16.72495 105.03107 38011 ft 463 kts 239°
2026-05-04 12:39 16.69024 104.97474 38019 ft 462 kts 239°
2026-05-04 12:40 16.65542 104.91828 38025 ft 462 kts 239°
2026-05-04 12:40 16.62796 104.87379 38030 ft 461 kts 239°
2026-05-04 12:41 16.59310 104.81733 38038 ft 461 kts 239°
2026-05-04 12:41 16.55742 104.76193 38041 ft 462 kts 234°
2026-05-04 12:42 16.51507 104.71132 38044 ft 464 kts 230°
2026-05-04 12:42 16.47164 104.66147 38033 ft 464 kts 230°
2026-05-04 12:43 16.42839 104.61141 38024 ft 465 kts 230°
2026-05-04 12:43 16.38528 104.56123 38011 ft 465 kts 230°
2026-05-04 12:44 16.34211 104.51098 37998 ft 465 kts 230°
2026-05-04 12:44 16.29930 104.46121 37991 ft 465 kts 230°
2026-05-04 12:45 16.25585 104.41084 37990 ft 466 kts 230°
2026-05-04 12:45 16.21210 104.36084 37989 ft 466 kts 230°
2026-05-04 12:46 16.16829 104.31091 37989 ft 466 kts 230°
2026-05-04 12:46 16.12463 104.26108 37984 ft 467 kts 230°
2026-05-04 12:47 16.08085 104.21109 37983 ft 467 kts 230°
2026-05-04 12:47 16.03712 104.16100 37982 ft 468 kts 230°
2026-05-04 12:48 15.99415 104.11088 37984 ft 468 kts 230°
2026-05-04 12:48 15.95089 104.06027 37980 ft 468 kts 230°
2026-05-04 12:49 15.90759 104.00976 37981 ft 468 kts 230°
2026-05-04 12:49 15.86395 103.95894 37985 ft 468 kts 230°
2026-05-04 12:50 15.82053 103.90845 37982 ft 469 kts 230°
2026-05-04 12:50 15.77707 103.85794 37997 ft 469 kts 230°
2026-05-04 12:51 15.73389 103.80779 37974 ft 469 kts 230°
2026-05-04 12:51 15.69005 103.75691 37971 ft 470 kts 230°
2026-05-04 12:52 15.64646 103.70634 37975 ft 470 kts 230°
2026-05-04 12:52 15.60286 103.65581 37986 ft 470 kts 230°
2026-05-04 12:53 15.55955 103.60564 37985 ft 470 kts 230°
2026-05-04 12:53 15.51594 103.55516 37986 ft 470 kts 230°
2026-05-04 12:54 15.47225 103.50462 37984 ft 470 kts 230°
2026-05-04 12:54 15.42861 103.45418 37990 ft 471 kts 230°
2026-05-04 12:55 15.38493 103.40372 37995 ft 470 kts 230°
2026-05-04 12:55 15.34123 103.35327 38005 ft 470 kts 230°
2026-05-04 12:56 15.29721 103.30249 38014 ft 470 kts 230°
2026-05-04 12:56 15.25380 103.25244 38011 ft 470 kts 230°
2026-05-04 12:57 15.21002 103.20200 38012 ft 470 kts 230°
2026-05-04 12:57 15.16626 103.15162 38007 ft 470 kts 230°
2026-05-04 12:58 15.12256 103.10132 38004 ft 470 kts 230°
2026-05-04 12:58 15.07871 103.05091 37998 ft 471 kts 229°
2026-05-04 12:59 15.03053 103.00500 37999 ft 473 kts 219°
2026-05-04 12:59 14.97552 102.96801 37991 ft 475 kts 212°
2026-05-04 13:00 14.91797 102.93344 37995 ft 475 kts 213°
2026-05-04 13:00 14.89147 102.91340 37987 ft 471 kts 225°
2026-05-04 13:00 14.87012 102.88797 38004 ft 469 kts 236°
2026-05-04 13:01 14.84228 102.82758 38013 ft 467 kts 253°
2026-05-04 13:01 14.82333 102.76308 38003 ft 470 kts 253°
2026-05-04 13:02 14.80437 102.69852 38009 ft 472 kts 253°
2026-05-04 13:02 14.78464 102.63342 38003 ft 474 kts 252°
2026-05-04 13:03 14.76842 102.58067 38009 ft 475 kts 252°
2026-05-04 13:03 14.74829 102.51542 38007 ft 476 kts 252°
2026-05-04 13:04 14.72820 102.45031 38001 ft 477 kts 252°
2026-05-04 13:04 14.70807 102.38506 38003 ft 477 kts 252°
2026-05-04 13:05 14.68785 102.31958 38004 ft 477 kts 252°
2026-05-04 13:05 14.66767 102.25431 38003 ft 477 kts 252°
2026-05-04 13:06 14.64758 102.18938 38011 ft 477 kts 252°
2026-05-04 13:06 14.63729 102.15615 37493 ft 485 kts 252°
2026-05-04 13:06 14.62703 102.12304 36826 ft 487 kts 252°
2026-05-04 13:06 14.61670 102.08972 36057 ft 486 kts 252°
2026-05-04 13:07 14.60633 102.05632 35220 ft 486 kts 252°
2026-05-04 13:07 14.59601 102.02304 34312 ft 489 kts 252°
2026-05-04 13:07 14.58560 101.98950 33277 ft 493 kts 252°
2026-05-04 13:07 14.57509 101.95568 32203 ft 495 kts 252°
2026-05-04 13:08 14.56445 101.92184 31160 ft 497 kts 251°
2026-05-04 13:08 14.55207 101.88860 30344 ft 495 kts 248°
2026-05-04 13:08 14.53896 101.85592 29530 ft 490 kts 248°
2026-05-04 13:08 14.52587 101.82370 28738 ft 485 kts 248°
2026-05-04 13:09 14.51289 101.79178 28010 ft 479 kts 248°
2026-05-04 13:09 14.50021 101.76045 27314 ft 474 kts 248°
2026-05-04 13:09 14.48763 101.72923 26630 ft 470 kts 248°
2026-05-04 13:09 14.47520 101.69825 25948 ft 465 kts 248°
2026-05-04 13:10 14.46284 101.66743 25269 ft 462 kts 248°
2026-05-04 13:10 14.45059 101.63685 24580 ft 459 kts 248°
2026-05-04 13:10 14.43844 101.60655 23897 ft 457 kts 248°
2026-05-04 13:10 14.42632 101.57633 23178 ft 455 kts 248°
2026-05-04 13:11 14.41423 101.54620 22440 ft 452 kts 248°
2026-05-04 13:11 14.40226 101.51641 21754 ft 448 kts 248°
2026-05-04 13:11 14.39316 101.49376 21252 ft 445 kts 248°
2026-05-04 13:11 14.38152 101.46482 20622 ft 441 kts 248°
2026-05-04 13:12 14.36987 101.43583 19979 ft 438 kts 248°
2026-05-04 13:12 14.35808 101.40654 19323 ft 435 kts 248°
2026-05-04 13:12 14.34646 101.37765 18690 ft 433 kts 248°
2026-05-04 13:12 14.33505 101.34929 18351 ft 423 kts 248°
2026-05-04 13:13 14.32398 101.32180 18143 ft 410 kts 248°
2026-05-04 13:13 14.31318 101.29500 17940 ft 397 kts 248°
2026-05-04 13:13 14.30127 101.27012 17692 ft 383 kts 235°
2026-05-04 13:13 14.28274 101.25087 17433 ft 376 kts 215°
2026-05-04 13:14 14.25976 101.23897 17173 ft 374 kts 198°
2026-05-04 13:14 14.23441 101.23450 16932 ft 372 kts 181°
2026-05-04 13:14 14.20875 101.23789 16677 ft 370 kts 163°
2026-05-04 13:14 14.18558 101.24897 16427 ft 368 kts 145°
2026-05-04 13:15 14.16696 101.26668 16171 ft 362 kts 127°
2026-05-04 13:15 14.15477 101.28886 15933 ft 353 kts 109°
2026-05-04 13:15 14.14962 101.31339 15893 ft 337 kts 94°
2026-05-04 13:15 14.14961 101.33675 15874 ft 323 kts 83°
2026-05-04 13:16 14.15503 101.35836 15876 ft 306 kts 67°
2026-05-04 13:16 14.16331 101.37845 15876 ft 291 kts 66°
2026-05-04 13:16 14.17114 101.39688 15877 ft 284 kts 66°
2026-05-04 13:16 14.17907 101.41554 15890 ft 284 kts 66°
2026-05-04 13:17 14.18696 101.43427 15898 ft 284 kts 66°
2026-05-04 13:17 14.19479 101.45298 15903 ft 285 kts 66°
2026-05-04 13:17 14.20256 101.47170 15906 ft 285 kts 66°
2026-05-04 13:17 14.21036 101.49055 15902 ft 286 kts 66°
2026-05-04 13:18 14.21815 101.50943 15901 ft 286 kts 66°
2026-05-04 13:18 14.22591 101.52831 15906 ft 286 kts 66°
2026-05-04 13:18 14.23367 101.54719 15909 ft 286 kts 66°
2026-05-04 13:18 14.24144 101.56610 15907 ft 286 kts 66°
2026-05-04 13:19 14.24656 101.57858 15905 ft 286 kts 66°
2026-05-04 13:19 14.25433 101.59752 15907 ft 286 kts 66°
2026-05-04 13:19 14.26207 101.61639 15905 ft 286 kts 66°
2026-05-04 13:19 14.27242 101.64163 15911 ft 285 kts 66°
2026-05-04 13:20 14.28011 101.66040 15911 ft 285 kts 66°
2026-05-04 13:20 14.28550 101.67278 15898 ft 282 kts 59°
2026-05-04 13:20 14.29778 101.68828 15922 ft 279 kts 40°
2026-05-04 13:20 14.31333 101.70015 15916 ft 279 kts 30°
2026-05-04 13:21 14.33068 101.70919 15916 ft 280 kts 21°
2026-05-04 13:21 14.34932 101.71487 15923 ft 281 kts
2026-05-04 13:21 14.36867 101.71608 15918 ft 281 kts 355°
2026-05-04 13:21 14.38797 101.71201 15921 ft 282 kts 340°
2026-05-04 13:22 14.40538 101.70294 15928 ft 282 kts 325°
2026-05-04 13:22 14.42022 101.68953 15932 ft 284 kts 311°
2026-05-04 13:22 14.43149 101.67287 15932 ft 285 kts 297°
2026-05-04 13:22 14.43864 101.65384 15926 ft 286 kts 284°
2026-05-04 13:23 14.44206 101.63365 15931 ft 287 kts 276°
2026-05-04 13:23 14.44235 101.61305 15919 ft 288 kts 263°
2026-05-04 13:23 14.43669 101.59340 15926 ft 286 kts 247°
2026-05-04 13:23 14.42884 101.57458 15928 ft 286 kts 247°
2026-05-04 13:24 14.42092 101.55577 15922 ft 287 kts 247°
2026-05-04 13:24 14.41296 101.53683 15921 ft 287 kts 247°
2026-05-04 13:24 14.40516 101.51801 15919 ft 287 kts 247°
2026-05-04 13:25 14.38947 101.47989 15919 ft 288 kts 247°
2026-05-04 13:25 14.38168 101.46094 15920 ft 288 kts 247°
2026-05-04 13:25 14.37385 101.44192 15917 ft 287 kts 247°
2026-05-04 13:25 14.36604 101.42297 15911 ft 287 kts 247°
2026-05-04 13:26 14.35823 101.40402 15910 ft 287 kts 247°
2026-05-04 13:26 14.35045 101.38514 15909 ft 286 kts 247°
2026-05-04 13:26 14.34269 101.36630 15908 ft 285 kts 247°
2026-05-04 13:26 14.33491 101.34745 15909 ft 285 kts 247°
2026-05-04 13:27 14.32719 101.32874 15910 ft 285 kts 247°
2026-05-04 13:27 14.31942 101.30991 15902 ft 285 kts 247°
2026-05-04 13:27 14.31145 101.29131 15897 ft 282 kts 241°
2026-05-04 13:27 14.29885 101.27618 15911 ft 279 kts 220°
2026-05-04 13:28 14.28358 101.26326 15911 ft 288 kts 219°
2026-05-04 13:28 14.26788 101.25010 15910 ft 292 kts 219°
2026-05-04 13:28 14.25214 101.23689 15902 ft 291 kts 219°
2026-05-04 13:28 14.23649 101.22371 15892 ft 290 kts 219°
2026-05-04 13:29 14.22093 101.21055 15890 ft 289 kts 219°
2026-05-04 13:29 14.20541 101.19740 15889 ft 288 kts 219°
2026-05-04 13:29 14.19000 101.18432 15884 ft 287 kts 220°
2026-05-04 13:29 14.17463 101.17125 15885 ft 285 kts 220°
2026-05-04 13:30 14.15957 101.15845 15879 ft 284 kts 220°
2026-05-04 13:30 14.14416 101.14534 15882 ft 283 kts 220°
2026-05-04 13:30 14.12913 101.13255 15882 ft 283 kts 219°
2026-05-04 13:30 14.11376 101.11947 15887 ft 283 kts 219°
2026-05-04 13:31 14.09878 101.10674 15889 ft 283 kts 219°
2026-05-04 13:31 14.08358 101.09381 15653 ft 288 kts 219°
2026-05-04 13:31 14.06786 101.08045 15220 ft 294 kts 219°
2026-05-04 13:31 14.05022 101.06915 14610 ft 300 kts 198°
2026-05-04 13:32 14.03007 101.06372 14132 ft 305 kts 193°
2026-05-04 13:32 14.00911 101.05845 13732 ft 308 kts 194°
2026-05-04 13:32 13.98831 101.05291 13290 ft 310 kts 194°
2026-05-04 13:32 13.96745 101.04723 12857 ft 311 kts 194°
2026-05-04 13:33 13.94660 101.04152 12495 ft 310 kts 194°
2026-05-04 13:33 13.93296 101.03777 12287 ft 309 kts 194°
2026-05-04 13:34 13.92493 101.03557 12160 ft 308 kts 194°
2026-05-04 13:34 13.90433 101.02991 11851 ft 306 kts 194°
2026-05-04 13:35 13.88395 101.02433 11535 ft 304 kts 194°
2026-05-04 13:35 13.84346 101.01274 10864 ft 297 kts 202°
2026-05-04 13:35 13.82660 101.00049 10464 ft 300 kts 229°
2026-05-04 13:36 13.82223 100.99448 10356 ft 300 kts 238°
2026-05-04 13:36 13.81856 100.98731 10244 ft 299 kts 247°
2026-05-04 13:36 13.81452 100.96222 9873 ft 297 kts 275°
2026-05-04 13:36 13.81877 100.94170 9670 ft 290 kts 285°
2026-05-04 13:37 13.82494 100.92212 9455 ft 290 kts 296°
2026-05-04 13:37 13.83746 100.90620 9084 ft 283 kts 323°
2026-05-04 13:37 13.85518 100.89805 8706 ft 277 kts 349°
2026-05-04 13:37 13.86782 100.89675 8524 ft 278 kts
2026-05-04 13:38 13.89328 100.90199 8137 ft 281 kts 17°
2026-05-04 13:38 13.91203 100.90736 7911 ft 280 kts 17°
2026-05-04 13:38 13.93092 100.91285 7799 ft 286 kts 17°
2026-05-04 13:38 13.95015 100.91828 7546 ft 287 kts 16°
2026-05-04 13:39 13.96943 100.92363 7184 ft 286 kts 16°
2026-05-04 13:39 13.98839 100.92885 6945 ft 278 kts 16°
2026-05-04 13:39 14.00689 100.93395 6677 ft 273 kts 16°
2026-05-04 13:39 14.02519 100.93910 6346 ft 271 kts 17°
2026-05-04 13:40 14.04269 100.94409 6282 ft 261 kts 17°
2026-05-04 13:40 14.06029 100.94918 6309 ft 255 kts 17°
2026-05-04 13:40 14.07737 100.95413 6285 ft 255 kts 17°
2026-05-04 13:40 14.09466 100.95690 6256 ft 254 kts 354°
2026-05-04 13:41 14.11044 100.94956 6285 ft 253 kts 319°
2026-05-04 13:41 14.12016 100.93463 6288 ft 252 kts 289°
2026-05-04 13:41 14.12227 100.91674 6199 ft 254 kts 262°
2026-05-04 13:42 14.10364 100.88806 5875 ft 245 kts 208°
2026-05-04 13:42 14.08832 100.88060 5609 ft 243 kts 202°
2026-05-04 13:42 14.07293 100.87342 5384 ft 242 kts 203°
2026-05-04 13:42 14.05760 100.86620 5170 ft 242 kts 203°
2026-05-04 13:43 14.04233 100.85894 4974 ft 242 kts 203°
2026-05-04 13:43 14.02708 100.85166 4773 ft 241 kts 203°
2026-05-04 13:43 14.01176 100.84477 4583 ft 239 kts 198°
2026-05-04 13:43 13.99575 100.84029 4384 ft 238 kts 192°
2026-05-04 13:44 13.97967 100.83649 4219 ft 236 kts 191°
2026-05-04 13:44 13.96395 100.83277 4035 ft 236 kts 192°
2026-05-04 13:44 13.94796 100.82873 3872 ft 235 kts 193°
2026-05-04 13:44 13.93220 100.82460 3652 ft 225 kts 193°
2026-05-04 13:45 13.91776 100.82078 3415 ft 203 kts 193°
2026-05-04 13:45 13.90468 100.81731 3261 ft 189 kts 193°
2026-05-04 13:45 13.89225 100.81403 3130 ft 182 kts 193°
2026-05-04 13:45 13.88006 100.81080 2969 ft 181 kts 193°
2026-05-04 13:46 13.86789 100.80759 2820 ft 181 kts 193°
2026-05-04 13:46 13.85566 100.80435 2668 ft 181 kts 193°
2026-05-04 13:46 13.84348 100.80113 2521 ft 180 kts 193°
2026-05-04 13:46 13.83139 100.79793 2383 ft 180 kts 193°
2026-05-04 13:47 13.81931 100.79474 2230 ft 179 kts 193°
2026-05-04 13:47 13.80728 100.79156 2083 ft 179 kts 193°
2026-05-04 13:47 13.79521 100.78837 1951 ft 178 kts 193°
2026-05-04 13:47 13.78328 100.78521 1797 ft 176 kts 193°
2026-05-04 13:48 13.77157 100.78212 1581 ft 172 kts 193°
2026-05-04 13:48 13.76035 100.77915 1344 ft 159 kts 193°
2026-05-04 13:48 13.75001 100.77654 1080 ft 147 kts 192°
2026-05-04 13:48 13.74669 100.77573 986 ft 145 kts 192°
2026-05-04 13:49 13.73587 100.77298 680 ft 142 kts 192°
2026-05-04 13:49 13.72612 100.77041 591 ft 146 kts 195°
2026-05-04 13:50 13.71631 100.76733 464 ft 150 kts 194°
2026-05-04 13:50 13.70629 100.76449 290 ft 148 kts 193°
2026-05-04 13:50 13.69630 100.76200 162 ft 150 kts 192°
2026-05-04 13:50 13.68612 100.75950 51 ft 150 kts 192°
2026-05-04 13:51 13.67653 100.75716 16 ft 109 kts 198°
2026-05-04 13:51 13.67268 100.75590 18 ft 51 kts 207°
2026-05-04 13:51 13.67134 100.75487 18 ft 6 kts 225°
2026-05-04 13:51 13.67102 100.75454 20 ft 7 kts 227°
2026-05-04 13:52 13.67133 100.75379 18 ft 7 kts
2026-05-04 13:52 13.67152 100.75383 18 ft 1 kts 12°
2026-05-04 13:52 13.67164 100.75385 18 ft 2 kts 13°
2026-05-04 13:53 13.67180 100.75389 18 ft 0 kts 13°
2026-05-04 13:54 13.67194 100.75393 18 ft 4 kts 13°
2026-05-04 13:55 13.67218 100.75399 18 ft 7 kts 15°
2026-05-04 13:55 13.67377 100.75442 18 ft 16 kts 14°
2026-05-04 13:55 13.67499 100.75474 18 ft 19 kts 14°
2026-05-04 13:56 13.67627 100.75507 18 ft 19 kts 14°
2026-05-04 13:56 13.67754 100.75541 18 ft 19 kts 14°
2026-05-04 13:56 13.68008 100.75608 18 ft 19 kts 14°
2026-05-04 13:57 13.68132 100.75640 18 ft 17 kts 14°
2026-05-04 13:57 13.68246 100.75670 18 ft 17 kts 14°
2026-05-04 13:58 13.68389 100.75707 18 ft 12 kts 14°
2026-05-04 13:58 13.68476 100.75571 18 ft 15 kts 284°
2026-05-04 13:58 13.68501 100.75472 18 ft 14 kts 284°
2026-05-04 13:59 13.68527 100.75368 18 ft 16 kts 284°
2026-05-04 13:59 13.68557 100.75249 18 ft 17 kts 284°
2026-05-04 13:59 13.68625 100.74983 18 ft 21 kts 284°
2026-05-04 14:00 13.68662 100.74832 18 ft 22 kts 285°
2026-05-04 14:00 13.68734 100.74544 18 ft 18 kts 284°
2026-05-04 14:00 13.68762 100.74433 18 ft 15 kts 284°
2026-05-04 14:01 13.68782 100.74355 18 ft 0 kts 284°
2026-05-04 14:01 13.68792 100.74315 18 ft 12 kts 284°
2026-05-04 14:01 13.68915 100.74229 18 ft 14 kts 13°
2026-05-04 14:02 13.69011 100.74254 18 ft 15 kts 14°
2026-05-04 14:02 13.69111 100.74280 18 ft 15 kts 14°
2026-05-04 14:02 13.69216 100.74308 18 ft 16 kts 14°
2026-05-04 14:02 13.69325 100.74337 18 ft 17 kts 14°
2026-05-04 14:03 13.69432 100.74365 18 ft 14 kts 16°
2026-05-04 14:03 13.69460 100.74451 18 ft 15 kts 102°
2026-05-04 14:03 13.69451 100.74548 18 ft 14 kts 76°
2026-05-04 14:03 13.69452 100.74624 18 ft 3 kts 105°
2026-05-04 14:04 13.69444 100.74652 18 ft 1 kts 104°
2026-05-04 14:04 13.69443 100.74657 18 ft 0 kts 104°
2026-05-04 14:04 13.69443 100.74659 18 ft 0 kts 104°